Weather History for Connaught Airport, Ireland

Change the Weather History Date:

Wednesday, January 9, 2013

  Actual Average Record
Temperature  
Mean Temperature 36 °F -  
Max Temperature 39 °F - - ()
Min Temperature 32 °F - - ()
Degree Days  
Heating Degree Days 30    
Moisture  
Dew Point 35 °F    
Average Humidity 99    
Maximum Humidity 100    
Minimum Humidity 88    
Precipitation  
Precipitation 0.01 in - - ()
Sea Level Pressure  
Sea Level Pressure 30.13 in    
Wind  
Wind Speed 5 mph ()    
Max Wind Speed 7 mph    
Max Gust Speed -    
Visibility 1.2 miles    
Events Fog    
T = Trace of Precipitation, MM = Missing Value Source: Averaged Metar Reports

Daily Weather History Graph

Daily Weather History Graph

Search for Another Location

Airport:

Trip Planner

Search our weather history database for the weather conditions in past years. The results will help you decide how hot, cold, wet, or windy it might be!

Date:

Astronomy

Jan. 09, 2013 Rise Set
Actual Time 8:50 AM GMT 4:35 PM GMT
Civil Twilight 8:07 AM GMT 5:17 PM GMT
Nautical Twilight 7:22 AM GMT 6:02 PM GMT
Astronomical Twilight 6:40 AM GMT 6:45 PM GMT
Moon 6:15 AM GMT (1/9) 2:21 PM GMT (1/9)
Length of Visible Light 9h 09m
Length of Day
7h 44m
Waning Crescent, 8% of the Moon is Illuminated
Jan 9
Waning Crescent
Jan 11
New
Jan 18
First Quarter
Jan 27
Full
Feb 3
Last Quarter

Hourly Weather History & Observations

Time (GMT) Temp. Windchill Dew Point Humidity Pressure Visibility Wind Dir Wind Speed Gust Speed Precip Events Conditions
12:00 AM 38 °F - 36 °F 88% 30.25 in - SSW 4.5 mph - -  
6:00 AM 34 °F - 34 °F 100% 30.22 in 1 mi South 4.5 mph - -   Mist
6:00 AM 33.8 °F 30.8 °F 33.8 °F 100% 30.18 in 1.1 mi South 3.5 mph - N/A   Mostly Cloudy
7:00 AM 32.0 °F - 32.0 °F 100% 30.18 in 0.5 mi South 2.3 mph - N/A Fog Fog
8:00 AM 32.0 °F 27.5 °F 32.0 °F 100% 30.15 in 0.1 mi SSE 4.6 mph - N/A Fog Fog
8:30 AM 32.0 °F 27.5 °F 32.0 °F 100% 30.15 in 0.1 mi SSE 4.6 mph - N/A Fog Fog
9:00 AM 32.0 °F 26.4 °F 32.0 °F 100% 30.18 in 0.1 mi SSE 5.8 mph - N/A Fog Fog
9:30 AM 32.0 °F 26.4 °F 32.0 °F 100% 30.15 in 0.1 mi SSE 5.8 mph - N/A Fog Fog
10:00 AM 32.0 °F 25.6 °F 32.0 °F 100% 30.15 in 0.3 mi SSE 6.9 mph - N/A Fog Fog
10:30 AM 32.0 °F 26.4 °F 32.0 °F 100% 30.15 in 0.5 mi SSE 5.8 mph - N/A Fog Fog
11:00 AM 32.0 °F 25.6 °F 32.0 °F 100% 30.15 in 0.2 mi SSE 6.9 mph - N/A Fog Fog
11:30 AM 32.0 °F 25.6 °F 32.0 °F 100% 30.15 in 0.1 mi SSE 6.9 mph - N/A Fog Fog
12:00 PM 33 °F - 33 °F 97% 30.19 in 0 mi SSE 6.7 mph - - Fog Partial Fog
12:00 PM 33.8 °F 28.6 °F 32.0 °F 93% 30.12 in 0.1 mi SSE 5.8 mph - N/A Fog Fog
12:30 PM 33.8 °F 27.7 °F 33.8 °F 100% 30.12 in 0.1 mi SSE 6.9 mph - N/A Fog Fog
1:00 PM 33.8 °F 27.7 °F 33.8 °F 100% 30.12 in 0.1 mi SSE 6.9 mph - N/A Fog Fog
1:30 PM 35.6 °F 30.7 °F 35.6 °F 100% 30.12 in 0.1 mi SSE 5.8 mph - N/A Fog Fog
2:00 PM 37.4 °F 33.8 °F 37.4 °F 100% 30.09 in 0.1 mi SSE 4.6 mph - N/A Fog Fog
2:30 PM 39.2 °F 34.2 °F 39.2 °F 100% 30.09 in 6.2 mi South 6.9 mph - N/A   Partly Cloudy
3:00 PM 39.2 °F 34.2 °F 39.2 °F 100% 30.09 in 6.2 mi South 6.9 mph - N/A   Scattered Clouds
3:30 PM 39.2 °F 35.0 °F 39.2 °F 100% 30.09 in 6.2 mi SE 5.8 mph - N/A   Mostly Cloudy
4:00 PM 39.2 °F 35.0 °F 39.2 °F 100% 30.09 in 6.2 mi SE 5.8 mph - N/A   Partly Cloudy
4:30 PM 37.4 °F 32.8 °F 37.4 °F 100% 30.09 in 0.7 mi SE 5.8 mph - N/A Fog Scattered Clouds
5:00 PM 35.6 °F 31.7 °F 35.6 °F 100% 30.09 in 0.2 mi ESE 4.6 mph - N/A Fog Fog
5:30 PM 35.6 °F 29.9 °F 35.6 °F 100% 30.06 in 0.4 mi ESE 6.9 mph - N/A Fog Fog
6:00 PM 36 °F - 36 °F 99% 30.12 in 0 mi SE 6.7 mph - - Fog Partial Fog
6:00 PM 35.6 °F 29.9 °F 35.6 °F 100% 30.06 in 0.2 mi SE 6.9 mph - N/A Fog Fog